Terminal Aerodrome Forecast
Issued by NWS Boston, MA

Home | Current Version | Previous Version | Text Only | Print | Product List | Glossary On
Versions: 1 2 3 4 5 6 7 8 9 10 11 12 13 14 15 16 17 18 19 20 21 22 23 24 25 26 27 28 29 30 31 32 33 34 35 36 37 38 39 40 41 42 43 44
033
FTUS41 KBOX 090922 AAA
TAFPVD
TAF AMD
KPVD 090922Z 0909/1006 36011KT P6SM BKN015
      TEMPO 0910/0912 -SHSN
     FM091200 36005KT P6SM BKN015
     FM092200 01006KT P6SM OVC025
     FM092300 01006KT P6SM OVC030
     FM100000 01005KT P6SM OVC040=

USA.gov is the U.S. government's official web portal to all federal, state and local government web resources and services.